Location: Tucson
(32.2217°N, 110.9265°W)
Time: 01:31:05
(UTC-07:00)

Courier 1B - All Passes

Search period start: 21 October 2021 00:00
Search period end: 31 October 2021 00:00
Orbit: 962 x 1209 km, 28.3° (Epoch: 20 October)

Date Brightness Start Highest point End Pass type
(mag) Time Alt. Az. Time Alt. Az. Time Alt. Az.
21 Oct - 07:18:20 10° SSE 07:20:44 12° SSE 07:23:07 10° SE daylight
21 Oct - 09:07:39 10° SW 09:14:21 33° SSE 09:20:46 10° E daylight
21 Oct - 11:00:52 10° WSW 11:08:14 58° S 11:15:10 10° E daylight
21 Oct - 12:55:05 10° W 13:02:16 64° S 13:09:00 10° ESE daylight
21 Oct - 14:49:37 10° W 14:56:03 40° SSW 15:02:10 10° SE daylight
21 Oct - 16:45:37 10° WSW 16:49:22 16° SSW 16:53:04 10° S daylight
22 Oct - 08:14:18 10° SSW 08:20:33 26° SSE 08:26:36 10° E daylight
22 Oct - 10:06:59 10° WSW 10:14:23 52° SSE 10:21:23 10° E daylight
22 Oct - 12:01:04 10° W 12:08:27 66° S 12:15:21 10° E daylight
22 Oct - 13:55:32 10° W 14:02:22 48° SSW 14:08:47 10° ESE daylight
22 Oct - 15:50:50 10° WSW 15:55:49 21° SSW 16:00:38 10° SSE daylight
23 Oct - 07:21:15 10° SSW 07:26:46 21° SSE 07:32:11 10° ESE daylight
23 Oct - 09:13:12 10° SW 09:20:31 46° SSE 09:27:32 10° E daylight
23 Oct - 11:07:03 10° WSW 11:14:35 65° S 11:21:39 10° E daylight
23 Oct - 13:01:28 10° W 13:08:37 56° SSW 13:15:18 10° ESE daylight
23 Oct - 14:56:24 10° W 15:02:13 28° SSW 15:07:47 10° SSE daylight
24 Oct - 06:28:41 10° S 06:33:00 16° SSE 06:37:17 10° ESE daylight
24 Oct - 08:19:32 10° SW 08:26:40 39° SSE 08:33:34 10° E daylight
24 Oct - 10:13:04 10° WSW 10:20:41 62° S 10:27:53 10° E daylight
24 Oct - 12:07:25 10° W 12:14:48 61° S 12:21:43 10° ESE daylight
24 Oct - 14:02:08 10° W 14:08:35 36° SSW 14:14:40 10° SE daylight
24 Oct - 15:59:16 10° SW 16:01:51 12° SSW 16:04:24 10° S daylight
25 Oct - 05:37:25 10° SSE 05:39:14 11° SSE 05:41:03 10° SE visible
25 Oct - 07:26:03 10° SW 07:32:49 32° SSE 07:39:28 10° E daylight
25 Oct - 09:19:08 10° WSW 09:26:46 58° S 09:34:05 10° E daylight
25 Oct - 11:13:21 10° W 11:20:55 65° S 11:28:03 10° ESE daylight
25 Oct - 13:07:57 10° W 13:14:52 44° SSW 13:21:22 10° SE daylight
25 Oct - 15:03:49 10° WSW 15:08:16 18° SSW 15:12:35 10° S daylight
26 Oct - 06:32:49 10° SSW 06:39:00 26° SSE 06:45:10 10° E daylight
26 Oct - 08:25:17 10° WSW 08:32:51 52° SSE 08:40:12 10° E daylight
26 Oct - 10:19:19 10° W 10:27:01 67° S 10:34:20 10° E daylight
26 Oct - 12:13:49 10° W 12:21:05 51° SSW 12:27:56 10° ESE daylight
26 Oct - 14:09:05 10° WSW 14:14:40 24° SSW 14:20:00 10° SSE daylight
27 Oct - 05:39:55 10° SSW 05:45:14 20° SSE 05:50:33 10° ESE visible
27 Oct - 07:31:34 10° SW 07:38:57 45° SSE 07:46:14 10° E daylight
27 Oct - 09:25:19 10° WSW 09:33:04 66° S 09:40:32 10° E daylight
27 Oct - 11:19:43 10° W 11:27:15 58° S 11:34:21 10° ESE daylight
27 Oct - 13:14:39 10° W 13:21:00 31° SSW 13:27:03 10° SE daylight
28 Oct - 04:47:37 10° S 04:51:28 14° SSE 04:55:23 10° ESE visible
28 Oct - 06:38:01 10° SW 06:45:05 38° SSE 06:52:09 10° E daylight
28 Oct - 08:31:22 10° WSW 08:39:07 62° S 08:46:41 10° E daylight
28 Oct - 10:25:39 10° W 10:33:21 63° S 10:40:41 10° ESE daylight
28 Oct - 12:20:21 10° W 12:27:17 39° SSW 12:33:50 10° SE daylight
28 Oct - 14:17:00 10° WSW 14:20:40 14° SSW 14:24:14 10° S daylight
29 Oct - 05:44:40 10° SSW 05:51:14 31° SSE 05:57:54 10° E visible
29 Oct - 07:37:30 10° WSW 07:45:09 57° SSE 07:52:45 10° E daylight
29 Oct - 09:31:37 10° W 09:39:24 66° S 09:46:55 10° ESE daylight
29 Oct - 11:26:10 10° W 11:33:29 47° SSW 11:40:26 10° SE daylight
29 Oct - 13:21:51 10° WSW 13:27:02 20° SSW 13:32:02 10° SSE daylight
30 Oct - 04:51:35 10° SSW 04:57:27 24° SSE 05:03:27 10° ESE visible
30 Oct - 06:43:46 10° WSW 06:51:14 51° SSE 06:58:45 10° E daylight
30 Oct - 08:37:37 10° W 08:45:25 67° S 08:53:04 10° E daylight
30 Oct - 10:32:03 10° W 10:39:37 54° SSW 10:46:53 10° ESE daylight
30 Oct - 12:27:13 10° W 12:33:22 27° SSW 12:39:15 10° SSE daylight
